Theta_e
320 317 315 314 314 313 313 313 314 315 315 316 316 317 318 317 317 316 317 318 318 317 315 314 313 314 316 316 315 317 316 317 318 321 321 320 318 321 321 321 322 322 322 320 317 314 314 314 314 314 314 313 312 310 308 305 302 299 297 296 294 293 293 294 294 293 291 289 290 290 290 291 291 291 291 291 291 292 292 291 291 290 291 290 291
321 315 313 313 312 313 312 312 311 312 313 314 315 316 317 317 316 317 317 317 317 316 315 314 314 315 316 315 317 317 313 313 314 316 319 318 315 316 318 319 319 320 318 318 316 313 313 312 312 312 313 312 311 310 307 302 299 297 296 294 295 293 291 293 293 293 291 288 286 286 287 288 289 289 289 289 291 291 292 291 291 290 289 290 290
315 314 314 312 312 312 311 311 311 312 313 313 315 316 316 316 316 316 317 316 316 316 315 314 315 317 317 317 318 314 314 313 315 314 314 314 312 312 313 315 316 314 315 317 315 313 312 312 311 311 312 311 310 307 305 301 299 297 296 294 293 294 293 294 294 296 291 290 289 286 284 284 286 287 288 288 289 290 290 290 290 290 289 290 291
312 313 313 311 311 310 310 310 310 311 312 312 313 314 315 315 315 316 316 316 315 315 314 315 316 317 317 318 319 316 311 307 308 307 308 309 309 309 309 310 312 312 312 312 313 313 312 311 310 311 312 312 310 307 304 300 298 297 297 296 295 291 292 292 295 298 293 290 286 288 286 286 282 283 284 287 288 288 288 288 289 288 289 289 291
312 313 313 311 310 309 309 309 310 310 310 312 313 313 314 314 315 315 316 315 315 314 314 315 315 310 308 308 308 307 307 307 306 305 305 305 306 305 306 305 308 309 311 310 309 311 313 313 311 310 311 311 309 306 304 302 298 298 298 297 296 294 292 293 294 299 295 295 293 289 285 286 286 286 284 284 286 285 287 288 288 288 288 289 288
312 311 312 312 310 310 310 309 309 310 310 312 313 314 314 314 315 315 315 315 314 314 314 314 311 311 307 306 306 307 306 305 305 306 304 303 304 305 304 304 304 306 307 308 308 307 309 310 309 309 309 309 307 305 301 299 298 298 298 298 298 298 295 293 293 297 298 296 300 299 298 290 289 285 284 281 285 287 287 287 287 288 289 288 288
313 312 312 311 311 310 309 309 309 309 310 312 313 314 314 314 314 314 315 314 314 313 314 311 311 310 309 309 309 308 308 307 308 308 307 306 306 303 301 301 303 302 302 305 306 306 308 305 306 308 308 307 305 304 301 299 298 298 299 298 299 299 298 294 295 295 297 297 299 298 298 296 292 285 284 284 280 283 285 285 285 287 288 288 288
312 313 311 311 310 310 309 309 309 309 311 312 312 313 313 314 314 314 314 313 313 312 312 311 310 310 308 309 310 310 311 309 308 308 309 308 305 302 300 299 299 300 300 301 303 304 304 304 305 305 306 306 304 304 302 301 300 300 299 300 300 299 299 297 296 295 293 294 296 295 294 295 294 295 293 287 285 280 281 285 287 286 287 287 288
311 312 312 311 310 310 309 309 310 310 310 311 312 313 313 313 313 314 313 312 312 312 311 310 310 310 309 309 310 311 313 313 310 309 308 305 302 300 299 297 297 297 297 298 299 301 301 303 305 306 305 305 304 304 303 301 300 301 300 300 300 299 299 300 298 296 295 295 294 294 295 294 293 296 295 294 289 284 282 282 282 285 286 287 287
310 309 310 310 310 309 309 309 309 309 310 312 312 312 313 313 312 312 312 311 311 310 309 309 310 309 309 309 310 311 310 310 311 307 305 303 301 299 298 295 295 295 294 295 295 296 299 301 303 305 305 305 303 305 304 303 303 302 301 301 301 300 301 301 300 299 297 297 295 295 293 293 293 292 293 292 294 291 285 282 282 281 280 284 286
311 310 308 308 307 307 307 306 307 308 310 311 311 311 312 312 312 311 311 311 311 309 309 308 308 308 308 309 310 311 310 309 305 303 302 301 301 298 298 296 295 294 294 294 295 295 296 297 300 301 303 303 303 305 304 304 304 303 302 302 303 302 301 301 301 301 297 298 296 295 294 293 291 289 289 290 290 289 287 284 284 283 283 283 285
310 309 308 307 305 304 305 305 306 307 308 309 310 311 310 311 311 310 310 310 309 308 308 308 307 307 308 310 310 311 309 307 306 304 302 301 301 298 297 296 295 294 293 292 292 293 295 296 297 298 300 302 302 303 304 304 304 304 303 303 303 303 303 302 301 300 298 298 296 296 295 296 295 294 293 292 290 290 289 285 284 284 285 286 287
309 310 309 308 307 305 304 304 305 306 307 308 309 310 310 310 310 310 309 310 308 307 307 307 306 306 307 308 309 310 309 306 305 306 303 301 300 299 298 296 294 293 292 291 291 292 293 294 295 297 298 300 301 302 303 304 304 304 303 304 304 302 302 302 300 300 298 297 296 296 296 295 296 296 297 293 293 294 289 285 285 285 284 285 285
310 310 310 310 309 309 307 306 305 305 306 307 308 309 309 309 309 309 309 309 308 307 306 306 306 306 307 308 309 308 307 305 306 304 302 302 301 300 299 298 297 296 294 294 293 293 293 294 295 296 298 299 300 302 302 302 303 303 303 302 302 302 302 301 301 301 299 299 297 294 295 294 291 296 294 295 292 289 286 285 284 285 287 284 285
310 310 310 310 310 310 309 307 306 306 306 307 308 308 308 308 308 308 308 309 307 306 306 305 305 306 306 307 306 307 305 304 304 305 303 302 302 301 299 300 300 299 296 295 294 292 292 293 294 295 296 297 299 300 300 300 301 301 301 301 300 300 299 298 297 297 296 295 295 293 291 291 290 291 291 290 291 290 288 286 284 282 282 284 283
308 308 309 309 310 309 308 307 306 306 306 307 307 308 308 308 308 308 308 309 308 305 305 305 305 305 305 305 305 305 303 304 303 302 303 303 303 302 301 300 299 298 298 297 295 293 293 293 293 294 295 296 297 298 298 298 299 298 297 297 295 296 295 295 295 295 294 294 293 292 290 288 289 289 288 288 288 289 288 287 286 284 282 280 281
310 310 310 310 309 307 307 306 306 306 306 307 307 308 308 308 308 307 308 308 309 307 305 304 304 304 304 305 305 304 303 301 302 302 302 301 302 301 301 300 299 298 296 297 294 293 293 293 293 294 294 294 294 295 296 296 296 295 295 295 293 293 293 293 292 292 292 291 291 291 288 287 286 287 286 286 287 286 288 287 287 286 286 282 281
311 311 311 311 308 306 306 306 306 306 306 307 307 308 308 308 308 307 307 307 308 307 305 304 304 304 304 304 304 304 302 301 301 301 301 300 299 298 298 298 298 296 295 295 293 292 292 291 292 291 292 292 292 292 293 294 294 294 293 293 292 292 291 291 291 290 289 289 288 287 287 286 286 286 286 286 285 285 285 285 284 285 284 284 284
311 310 309 307 306 306 305 305 305 306 306 307 308 308 308 308 308 308 307 307 308 308 306 305 305 305 305 304 303 302 301 301 301 301 300 298 297 296 295 296 296 294 292 291 290 290 290 290 290 290 290 291 291 291 292 292 292 292 291 290 290 290 289 288 288 288 287 287 286 286 286 285 286 285 284 284 284 284 285 285 284 285 284 285 283
311 312 311 310 307 306 305 304 304 304 305 307 307 308 307 307 307 307 308 308 307 307 305 303 304 304 304 304 303 303 301 300 300 299 299 298 296 295 293 293 294 292 291 290 289 289 289 289 289 289 289 289 289 290 291 291 291 290 289 289 288 288 286 285 285 286 286 285 284 284 284 283 284 284 284 284 284 284 284 285 284 284 284 283 284
310 312 311 309 307 305 304 304 304 304 305 306 306 307 307 307 307 307 306 306 306 306 306 304 303 303 303 302 302 301 300 300 298 298 297 295 295 294 293 293 292 291 290 289 289 288 288 289 288 288 288 288 289 289 290 289 289 288 287 287 286 286 285 284 284 283 284 284 284 283 282 282 283 283 283 283 283 283 283 283 283 284 284 282 283
311 313 311 308 305 304 303 303 303 303 303 304 306 306 306 306 306 306 306 306 306 306 306 305 303 302 301 301 301 300 300 299 297 297 296 294 294 293 292 291 291 291 289 289 288 288 287 288 288 288 287 287 287 288 288 288 287 286 285 287 286 285 284 283 283 282 283 284 283 282 281 281 282 282 281 281 281 281 280 281 280 282 281 283 281
310 309 308 307 306 304 302 301 301 301 302 303 304 305 305 305 306 306 305 305 306 306 306 305 304 302 301 301 300 298 298 297 297 296 295 294 293 292 291 290 290 289 289 289 288 288 287 287 287 287 287 286 287 287 287 287 286 285 285 285 285 284 284 283 282 282 282 282 282 282 281 281 282 280 280 280 280 280 280 280 280 280 280 280 281
307 307 305 305 303 302 301 300 300 300 301 301 302 304 305 305 305 305 304 305 305 305 305 304 303 301 300 299 298 297 297 296 295 295 293 292 292 292 290 289 289 289 288 288 288 288 287 286 286 286 286 286 286 286 286 286 286 285 284 284 284 284 284 283 283 282 282 282 282 281 280 280 280 279 279 279 279 280 280 280 280 280 280 280 281
307 306 306 304 302 300 300 301 301 301 301 301 301 302 303 304 304 304 304 304 304 305 304 303 301 299 299 298 297 296 295 294 294 293 293 292 291 289 288 288 288 287 287 287 287 287 287 286 286 285 285 285 285 285 285 285 285 285 284 284 284 284 284 284 283 283 282 282 282 281 280 279 279 279 279 279 279 279 280 280 279 280 280 280 281
306 307 307 304 303 303 302 301 301 301 301 301 301 302 302 303 304 304 303 303 303 304 303 301 299 298 298 297 296 295 295 295 293 292 291 293 290 288 287 287 287 287 286 286 286 286 286 286 286 285 285 285 285 285 285 284 284 284 284 284 284 284 284 283 283 282 282 282 281 280 279 279 279 279 279 279 279 279 279 279 279 279 280 280 279
305 306 307 305 303 302 302 301 301 301 301 301 301 301 301 302 302 303 303 303 302 302 302 300 298 298 297 296 295 294 294 293 293 292 291 290 289 288 287 286 286 286 285 285 285 285 285 285 285 285 284 284 284 284 285 284 284 284 283 283 283 283 283 282 282 281 281 281 281 280 279 279 279 279 279 279 279 279 280 279 280 279 280 279 279
304 304 304 304 304 304 303 302 301 301 301 301 301 301 301 301 300 301 301 301 302 301 300 299 298 297 296 295 295 294 293 293 292 291 290 288 288 287 286 286 285 285 285 284 284 284 284 285 284 284 284 285 284 284 284 284 284 284 283 282 283 282 281 281 281 281 281 280 280 279 279 279 279 280 280 280 280 280 280 279 280 280 279 279 278
306 305 304 304 305 305 304 303 302 300 299 299 299 299 300 299 300 300 300 300 300 300 299 298 297 296 296 296 295 294 293 292 291 291 289 288 287 286 286 285 285 285 285 285 284 284 284 283 284 284 283 284 284 284 284 283 283 283 283 282 282 282 281 280 280 279 279 279 279 279 279 279 280 281 282 282 281 282 280 280 280 280 279 279 279
307 308 308 307 306 306 306 306 303 301 300 298 298 298 298 298 298 299 299 299 299 298 298 297 296 295 295 296 294 293 292 291 292 289 288 287 286 286 285 285 285 285 285 284 284 284 283 283 283 283 283 283 284 284 284 286 285 283 282 283 283 282 281 280 279 278 278 278 278 278 279 281 281 281 281 282 282 282 282 281 280 281 280 279 279
310 308 308 307 305 305 306 305 304 302 301 299 299 299 298 298 298 298 298 298 299 297 296 296 295 295 295 295 293 292 292 290 290 289 288 287 286 285 285 285 285 284 284 284 284 283 282 282 282 282 282 282 283 283 285 288 288 286 283 283 282 282 281 280 279 279 278 278 278 278 279 281 281 281 281 282 282 283 282 283 282 282 281 280 279
306 307 308 308 306 306 305 304 304 303 302 301 299 299 297 297 297 297 297 297 297 296 296 295 295 295 294 294 293 291 291 290 288 287 287 286 286 285 285 285 284 284 284 284 283 283 283 282 282 282 281 281 282 284 287 288 288 288 285 283 283 282 281 280 279 279 279 278 277 278 279 279 280 280 280 280 281 282 283 283 283 283 283 283 283
306 307 307 308 309 308 307 307 305 304 303 302 301 298 297 297 297 297 297 296 296 295 295 295 295 294 294 293 292 291 290 289 288 287 286 286 285 284 284 284 284 284 284 283 283 282 282 282 282 281 281 281 281 285 287 288 288 287 287 284 283 282 281 280 279 279 279 279 278 278 278 278 279 280 280 280 280 280 282 283 283 283 284 284 285
307 307 307 308 308 309 309 309 307 306 304 303 300 299 298 298 297 297 295 295 295 294 294 294 293 293 293 292 291 289 288 288 287 287 286 285 284 284 284 284 284 284 283 283 283 283 283 282 282 282 282 281 282 284 286 287 287 287 287 285 283 282 281 280 280 279 280 279 279 279 278 278 278 279 279 279 279 279 280 280 280 281 281 282 283
306 307 307 307 308 308 308 305 304 304 302 300 298 298 298 297 296 295 295 294 294 294 293 293 292 292 291 291 290 289 288 287 287 286 285 285 284 284 284 284 284 283 282 282 282 282 282 282 282 282 282 281 280 284 286 286 287 287 287 285 283 282 282 282 281 280 280 279 280 280 280 280 280 279 279 279 279 279 279 279 279 279 280 281 281
306 307 307 307 307 307 306 305 304 301 299 298 297 297 296 295 295 294 293 293 292 292 292 292 291 291 290 290 288 288 287 286 286 285 285 284 284 284 284 284 284 284 284 283 283 283 282 282 282 281 281 280 280 284 285 286 287 287 286 283 283 282 282 281 280 279 280 280 280 281 281 281 281 280 281 282 281 280 279 278 278 279 279 280 281
307 306 307 307 307 306 305 303 300 299 297 297 297 295 295 293 292 293 291 291 291 291 291 291 290 290 289 289 289 288 287 286 285 285 284 284 284 284 284 284 283 283 283 282 282 282 282 282 281 281 280 280 280 283 285 286 286 286 285 282 282 281 280 279 279 279 279 280 281 281 281 281 281 281 282 283 284 282 280 279 278 278 278 279 279
306 306 306 305 301 296 296 298 296 295 296 295 294 294 293 291 291 290 290 290 290 290 291 290 290 290 289 289 288 287 286 285 285 284 284 284 284 284 284 284 283 282 282 282 282 282 282 282 281 280 280 280 279 282 285 286 286 286 284 281 280 280 279 279 279 280 280 280 280 282 282 280 280 281 282 283 284 283 281 280 280 279 278 278 279
304 303 302 299 296 295 293 294 294 292 292 293 292 291 291 289 289 289 289 289 289 290 290 289 289 289 289 288 288 287 286 285 285 284 284 284 284 284 284 284 284 283 282 283 282 281 280 281 280 280 282 280 279 281 285 286 286 286 284 282 280 280 280 280 280 280 281 280 281 282 282 282 281 281 283 284 284 283 282 281 280 279 278 278 279
299 294 294 293 292 292 291 291 291 292 290 290 290 290 288 289 288 289 288 289 289 290 290 290 289 289 288 287 287 286 286 285 285 284 284 284 284 284 283 283 283 283 282 281 281 281 279 279 280 280 280 279 278 280 284 286 286 287 286 284 283 281 281 281 282 283 283 283 283 283 283 284 285 285 285 285 285 285 282 281 281 279 278 278 280
294 293 289 292 292 293 292 291 291 290 289 289 289 289 288 288 288 288 288 288 289 290 289 289 288 288 287 286 286 286 285 285 285 284 284 284 284 283 283 283 282 282 281 280 280 280 280 279 279 280 279 280 279 279 283 286 286 287 287 285 284 283 284 284 284 285 285 285 285 285 285 285 286 287 287 286 286 286 285 283 281 280 280 281 283
289 288 289 291 290 289 289 288 288 289 288 288 288 287 287 287 287 287 288 289 289 289 288 287 286 286 286 286 285 285 285 285 285 285 284 283 284 284 283 282 282 281 280 279 279 279 279 278 278 279 280 279 280 280 281 285 286 286 287 286 284 284 285 285 285 285 285 284 284 285 285 285 285 286 286 286 286 285 285 284 283 284 285 285 283
289 288 288 289 288 288 287 287 287 287 288 287 287 286 286 286 286 287 288 288 288 287 287 286 286 285 285 285 284 284 284 284 284 284 283 282 282 282 282 282 281 280 280 279 279 279 279 278 278 278 279 279 280 280 281 282 285 286 287 287 285 285 286 285 284 283 284 284 285 284 284 284 284 284 284 284 284 284 283 283 284 284 284 284 284
289 289 288 287 288 287 286 286 286 287 287 287 286 285 286 286 285 287 287 286 286 286 286 285 285 284 284 284 284 284 284 284 284 283 283 281 281 282 282 281 281 280 279 279 279 279 279 278 277 277 278 279 279 279 281 281 283 285 286 286 286 286 286 285 285 284 284 284 283 283 283 283 283 283 283 283 284 284 283 284 284 284 283 282 281
288 287 286 286 287 286 285 285 286 286 286 286 286 285 285 284 285 285 285 285 285 285 284 283 283 283 283 283 284 284 284 284 283 283 282 282 281 282 281 281 281 280 280 279 279 279 279 278 278 278 278 278 278 279 279 280 281 282 284 285 285 285 286 286 285 285 285 284 284 284 284 283 283 282 282 282 281 281 282 282 281 281 280 279 278
287 285 285 285 285 285 285 284 284 285 285 285 285 286 284 284 285 285 285 285 284 284 283 283 283 283 283 283 283 283 283 283 283 284 283 282 281 281 281 281 281 281 280 280 279 279 279 279 279 279 278 278 278 278 278 279 280 281 281 282 284 284 284 284 284 283 283 283 283 283 282 282 280 279 279 276 278 277 279 279 279 279 275 276 277
285 285 285 284 284 284 284 284 282 284 284 284 285 285 285 285 284 285 284 284 283 283 282 283 282 282 283 283 283 282 282 283 283 284 283 282 282 282 282 281 281 281 281 280 280 279 279 279 279 280 280 279 279 279 279 279 279 280 280 280 280 280 281 281 280 280 280 280 280 279 277 278 278 279 278 278 278 278 277 276 276 276 276 276 276
286 284 284 284 284 284 283 282 282 282 282 283 284 284 284 284 284 284 284 284 283 282 282 282 282 282 282 283 282 279 281 283 283 283 282 282 283 283 282 281 281 281 281 281 280 280 280 280 280 281 280 279 278 279 279 278 277 278 278 278 277 277 276 277 276 277 276 276 275 278 276 276 275 275 274 275 276 276 277 277 276 276 276 277 278
284 283 284 284 284 283 283 281 280 279 280 280 281 282 283 283 283 283 284 283 282 282 282 282 282 282 282 282 282 282 283 283 283 282 281 282 282 283 282 281 281 283 283 282 281 281 281 281 282 280 279 278 278 277 277 280 278 279 278 276 276 275 276 276 277 278 276 275 275 275 275 276 277 276 276 276 277 277 277 278 277 277 277 277 277
284 283 283 283 283 282 281 279 277 277 278 277 278 279 281 282 283 283 283 282 281 281 281 281 282 282 281 281 282 282 282 282 281 279 278 278 279 282 282 281 279 281 282 283 283 281 281 281 280 280 279 279 278 278 280 280 280 280 280 279 279 279 279 278 279 280 279 278 278 277 277 277 276 276 276 276 276 276 276 276 277 277 277 277 277
283 282 283 282 282 281 279 277 276 276 276 276 276 277 278 280 282 282 282 281 281 281 281 281 281 281 281 281 281 281 281 280 280 279 278 277 277 279 281 281 281 280 281 281 281 281 281 281 279 276 278 281 280 281 280 280 280 280 279 279 279 280 280 280 281 280 278 278 277 277 277 277 277 277 276 276 276 275 275 275 275 276 276 276 276
Wind_Speed
4 8 9 10 10 10 9 9 10 11 11 12 14 14 14 13 12 13 11 11 10 10 9 9 10 9 10 11 10 10 7 6 6 7 7 5 4 5 5 5 6 6 7 7 8 8 7 7 9 9 9 10 11 9 9 8 6 7 8 6 10 10 6 6 7 10 11 8 7 7 6 6 5 4 4 3 3 2 2 2 2 3 3 3 3
8 7 9 10 9 10 9 8 10 12 13 13 14 15 14 13 13 12 10 12 11 11 10 10 10 10 10 11 10 9 6 6 5 5 8 5 4 4 5 5 7 6 7 8 8 8 8 7 8 10 9 8 9 9 11 10 11 9 9 7 3 8 8 8 9 10 5 7 8 6 5 4 3 3 3 3 2 2 1 2 2 2 2 2 2
10 11 11 11 11 11 9 9 10 12 11 13 13 13 13 13 12 12 11 11 11 11 10 10 10 11 10 8 10 6 4 3 2 3 4 5 3 2 2 3 6 6 6 7 8 9 9 10 9 8 9 9 9 9 9 11 10 12 12 10 8 4 5 6 9 6 8 7 7 8 5 4 2 1 1 2 2 1 2 2 2 2 1 1 1
12 11 10 11 11 11 9 9 10 10 10 11 12 14 12 12 12 12 11 11 10 11 9 9 9 11 10 8 9 5 5 4 3 2 2 4 5 3 2 2 3 5 6 6 6 7 8 9 9 10 10 10 9 9 11 11 11 10 8 8 10 10 6 7 6 5 9 12 8 5 7 5 3 7 6 3 2 1 1 2 2 2 1 1 1
10 8 7 9 10 11 11 10 9 10 11 11 12 13 10 13 13 13 10 11 9 10 10 9 8 6 5 5 5 4 4 4 3 3 4 3 3 4 4 2 2 4 5 6 6 7 6 8 10 10 10 10 9 11 10 12 11 12 13 12 11 12 10 6 8 5 9 7 7 7 4 5 6 6 8 3 4 3 1 1 1 2 2 1 1
11 9 8 8 9 9 10 10 11 10 11 11 11 12 12 11 12 12 10 9 10 11 12 9 7 9 6 7 7 6 6 7 8 8 6 5 5 4 3 3 2 3 4 5 5 6 7 8 7 9 9 8 8 10 8 7 8 9 13 12 11 10 13 10 9 5 7 10 2 2 1 2 4 8 8 4 4 2 2 2 2 2 1 2 2
7 8 7 7 7 8 10 11 11 11 11 10 10 11 12 11 11 12 10 8 9 10 12 9 10 10 10 8 6 7 7 4 3 3 5 4 4 5 3 3 3 2 3 5 3 6 6 7 8 9 9 9 8 8 9 12 11 12 11 10 9 8 9 9 11 9 4 6 1 3 1 2 4 11 6 6 4 4 3 4 4 3 3 2 3
4 5 7 7 8 8 9 10 10 9 9 9 10 10 13 12 11 12 9 9 9 10 12 11 12 10 8 9 7 7 7 5 6 5 5 5 5 5 3 3 3 2 3 3 3 5 5 5 8 7 8 9 10 10 11 9 9 8 10 12 10 8 11 9 9 10 11 7 5 3 1 2 6 2 5 6 4 7 6 3 3 4 3 4 4
3 4 4 5 6 7 6 7 7 8 8 9 9 9 10 10 11 11 11 10 9 12 11 12 11 10 9 8 9 7 7 5 7 6 6 6 6 5 5 3 3 2 3 3 3 5 6 6 7 9 8 6 7 8 10 12 14 13 12 9 8 7 8 7 8 9 9 7 7 5 3 3 5 2 3 3 2 4 4 7 6 4 3 4 4
2 2 2 2 2 2 3 3 6 7 7 8 8 8 9 10 11 12 12 10 10 12 11 12 11 9 11 10 11 9 6 4 6 6 6 6 6 7 6 5 4 3 3 3 4 3 5 6 6 10 11 10 8 7 10 11 11 10 12 11 10 10 8 7 9 7 8 6 7 5 5 4 4 2 3 3 1 3 4 9 8 9 7 6 5
2 2 2 3 3 3 3 4 5 6 6 8 8 9 9 10 11 12 12 9 10 12 12 12 11 9 10 11 11 13 9 9 6 5 5 6 6 6 6 5 5 4 4 4 3 4 3 4 5 5 8 9 9 9 10 12 11 11 10 9 10 11 8 8 7 7 8 7 7 6 6 6 5 5 5 4 3 2 4 5 6 7 6 5 6
3 3 4 5 4 4 4 6 7 8 8 8 8 9 9 9 10 12 12 11 10 10 12 11 10 9 10 12 15 14 9 9 9 9 9 8 7 7 5 4 4 4 4 4 4 4 5 5 5 4 7 8 9 7 8 9 9 8 9 10 10 10 9 8 7 7 9 5 7 5 5 4 4 3 4 5 4 3 4 6 5 6 4 3 4
3 3 4 4 5 6 6 7 7 9 8 9 9 9 9 9 11 12 12 11 10 11 12 12 11 11 10 11 11 11 9 9 8 8 8 8 6 6 7 6 5 4 5 5 5 7 7 7 7 7 6 8 9 8 7 9 9 9 10 11 9 10 9 8 7 6 9 6 6 5 3 4 2 1 2 3 3 2 4 5 4 6 4 4 3
4 4 4 5 5 6 7 7 8 7 9 9 10 10 9 9 11 11 12 11 10 11 11 12 12 10 10 10 13 9 7 6 7 7 7 6 6 7 7 7 7 9 9 10 9 9 8 8 7 7 6 8 10 9 8 8 9 9 9 9 8 8 6 7 4 4 5 3 4 3 2 2 3 2 2 1 2 3 5 7 6 3 1 4 2
6 5 6 7 7 7 6 7 7 7 8 9 9 10 10 10 11 12 12 12 12 11 10 11 10 10 10 8 6 5 6 6 5 4 6 7 6 6 5 5 7 8 9 7 7 8 8 7 8 8 8 8 8 7 7 8 8 7 7 7 5 4 5 6 4 5 5 4 3 4 4 4 3 2 2 3 2 1 4 6 7 7 1 2 3
6 8 10 9 7 6 6 7 7 7 9 9 10 10 10 10 11 12 13 13 13 12 11 11 10 9 10 10 9 7 5 6 5 5 5 6 5 6 7 7 6 7 7 8 8 8 8 7 8 10 8 8 8 8 8 7 7 6 5 5 5 3 5 5 4 5 5 5 4 4 5 4 3 3 3 3 3 3 4 4 4 5 5 3 4
4 6 6 5 5 6 7 8 8 8 9 9 10 10 11 11 11 12 12 12 13 12 11 11 11 10 11 11 11 11 8 8 7 7 7 5 4 5 6 7 6 6 6 6 7 7 6 6 7 8 9 7 6 6 7 5 6 5 4 5 6 4 5 5 4 5 5 5 4 4 5 4 3 3 4 4 3 4 4 3 1 1 2 3 3
5 5 4 5 6 7 7 7 8 9 9 10 11 10 10 10 11 12 12 13 12 12 12 11 12 12 11 12 11 11 9 8 7 7 6 6 5 4 6 6 7 6 5 5 6 7 7 7 7 6 6 7 7 5 5 5 6 4 5 5 5 6 6 5 4 6 5 5 5 5 5 4 3 4 4 4 5 5 3 3 3 4 3 2 2
4 5 6 6 6 6 7 6 7 7 8 9 9 10 9 10 10 11 12 12 12 10 11 10 11 9 11 10 11 9 8 8 8 7 7 7 8 7 8 8 6 5 5 6 6 7 7 7 7 6 6 7 6 6 6 6 6 6 6 5 6 6 6 6 5 6 5 6 6 6 5 5 4 5 5 5 5 5 4 4 3 3 3 3 3
5 5 5 5 5 5 6 6 7 8 8 7 8 8 10 9 10 10 10 10 11 12 11 11 11 11 10 12 11 10 9 9 8 8 8 10 9 8 8 7 8 5 7 6 6 7 7 8 7 7 7 6 7 6 6 7 6 6 6 6 6 7 7 7 6 5 4 5 7 7 5 5 5 5 5 5 5 4 4 3 3 2 2 2 4
7 7 6 6 6 5 5 5 6 6 6 7 8 10 10 10 11 12 12 12 13 12 12 11 10 12 12 13 10 10 10 9 8 9 9 8 9 8 7 7 6 5 7 7 8 8 8 8 8 7 7 7 8 8 7 7 6 7 6 7 7 7 8 7 7 7 5 6 7 7 6 5 5 6 5 5 4 3 3 3 3 2 0 1 1
4 4 4 5 6 6 5 5 5 6 7 9 9 9 10 11 11 11 11 11 12 12 12 11 11 10 13 12 12 9 9 8 8 9 9 8 8 8 7 6 8 7 7 8 8 7 7 7 8 8 7 6 7 8 8 7 8 8 7 6 7 8 8 8 8 8 6 5 7 8 7 6 5 7 6 5 4 3 2 3 2 1 1 1 1
1 2 2 3 4 5 5 6 6 7 7 8 9 9 10 11 11 11 12 12 11 11 10 10 10 10 12 11 10 9 8 9 9 8 8 8 6 7 7 8 7 7 7 8 8 9 8 8 7 7 7 7 8 8 8 8 8 9 9 8 7 8 9 9 9 8 8 7 7 7 7 6 5 7 5 4 4 3 3 2 1 1 0 1 0
2 1 1 2 4 5 4 5 6 7 8 9 9 9 9 10 11 11 12 12 11 10 10 10 9 9 10 10 9 8 10 9 10 8 8 7 6 6 7 7 7 6 8 7 8 9 8 8 7 7 7 7 8 8 8 8 10 10 10 10 8 8 8 9 9 9 8 7 8 8 6 7 6 7 5 4 4 3 4 2 1 0 0 1 1
4 3 3 3 4 5 5 6 7 7 7 8 9 10 10 11 11 11 10 11 10 10 10 10 9 10 10 9 9 8 10 10 9 8 10 9 7 7 7 8 8 7 8 7 8 8 8 8 8 8 8 8 8 8 9 8 8 8 10 10 9 8 8 8 8 9 8 8 7 8 7 7 7 7 5 4 4 4 3 2 1 1 1 1 1
5 6 5 6 5 4 5 6 6 7 8 8 8 9 10 10 12 10 10 10 11 9 10 9 9 10 10 11 9 9 11 11 10 9 9 10 8 8 8 8 8 8 8 8 8 9 9 10 10 10 9 9 9 8 9 9 10 10 10 9 9 9 9 8 8 8 8 7 9 9 7 6 7 7 5 4 4 4 3 2 1 2 1 1 2
6 8 6 5 6 8 7 7 8 7 8 8 8 9 10 11 10 9 9 9 9 9 9 9 9 10 10 11 10 10 8 10 11 10 9 9 9 8 9 9 8 9 9 9 7 10 9 10 10 10 10 9 9 9 9 9 9 9 10 10 9 8 7 7 7 8 8 8 9 9 8 7 7 6 6 6 5 4 3 3 4 3 3 2 3
6 7 8 9 9 7 7 9 9 9 8 7 8 9 10 10 9 8 8 8 7 9 9 9 10 10 10 10 10 10 10 10 10 10 9 10 10 9 8 7 8 9 9 8 9 12 10 9 9 8 8 9 9 10 9 9 9 9 9 9 9 9 8 8 8 7 7 7 7 7 8 8 8 6 6 6 6 5 4 4 4 4 4 4 4
8 9 8 9 9 9 9 8 8 7 7 8 7 8 9 8 7 8 8 9 8 9 10 10 10 10 10 9 9 9 8 10 10 10 10 10 11 10 9 8 8 8 7 6 5 8 8 9 8 7 8 7 8 8 8 10 10 9 10 11 10 10 10 10 9 9 7 8 7 7 8 8 8 8 9 7 6 5 4 3 3 4 5 4 3
11 11 11 12 11 13 13 10 9 10 9 9 9 10 10 8 9 9 9 9 9 10 10 10 10 10 9 9 9 9 9 10 11 10 10 10 10 9 9 7 9 8 7 6 5 7 7 8 7 7 6 6 7 6 9 15 13 12 10 8 9 9 10 10 10 8 7 7 7 7 7 9 10 9 9 9 9 9 8 6 3 4 3 3 4
15 14 14 12 13 13 13 13 13 12 12 11 10 10 8 8 8 9 9 9 9 9 10 10 10 8 8 8 8 9 10 10 10 10 10 10 9 8 9 4 6 6 8 7 7 9 9 8 8 9 9 7 6 7 14 14 12 13 11 10 10 9 8 8 9 9 8 8 7 6 6 8 8 7 7 10 10 11 11 12 12 11 8 5 4
22 21 19 16 14 13 14 15 14 11 9 8 9 7 8 10 9 9 9 8 9 9 10 10 9 8 9 9 8 9 10 10 10 10 10 7 8 8 7 6 6 6 6 6 8 9 9 7 6 5 5 6 6 7 11 11 12 13 10 10 7 8 7 8 8 10 7 8 9 7 5 5 5 6 5 5 8 11 12 13 13 14 14 16 14
22 21 21 20 18 17 16 15 9 7 11 11 9 9 11 11 9 8 8 9 10 9 9 9 9 9 9 9 8 9 10 10 10 10 8 7 7 7 7 7 8 7 7 8 6 8 8 7 7 7 7 7 6 8 10 9 10 13 13 11 8 8 9 8 9 10 11 8 7 6 6 4 4 9 6 4 5 5 10 13 13 14 17 17 18
20 21 20 19 18 16 13 10 11 11 11 8 9 11 9 8 8 8 10 9 10 10 9 9 9 9 9 9 9 7 8 9 9 8 8 8 7 8 7 6 6 6 7 6 6 7 6 6 7 7 5 5 4 7 11 11 12 13 14 11 7 8 8 8 10 10 7 8 10 9 8 5 4 5 5 6 5 5 5 5 6 7 8 11 16
20 20 19 18 18 16 8 4 7 8 4 6 6 7 7 7 8 9 9 9 9 9 9 9 9 9 9 9 9 9 7 8 8 9 9 8 9 7 8 6 7 8 9 9 9 9 7 6 5 6 6 6 6 11 12 13 13 12 13 7 6 6 5 5 6 9 10 10 8 7 7 7 7 5 5 7 5 5 5 5 7 9 8 8 8
19 18 17 15 14 14 11 11 4 4 5 6 6 6 7 7 7 8 8 8 9 9 8 8 9 9 9 8 9 9 7 7 8 9 9 9 9 8 9 6 5 4 4 5 4 5 7 7 7 6 5 6 5 13 13 12 12 11 10 3 3 4 5 5 6 7 8 6 6 7 6 5 6 6 8 13 9 4 5 8 10 10 10 9 10
19 17 18 14 9 7 5 1 3 4 5 5 5 6 6 6 7 6 7 7 8 8 8 9 8 9 9 8 9 10 7 8 8 9 9 9 9 7 6 5 6 4 5 6 6 5 5 6 6 6 6 5 5 10 13 12 12 13 8 3 4 4 4 5 5 5 6 5 6 6 6 5 5 5 7 12 13 11 8 9 10 12 11 9 11
16 15 14 8 1 3 4 2 2 3 2 4 5 6 6 6 6 6 7 7 7 7 7 8 8 7 8 8 9 7 7 7 8 9 9 7 5 4 5 5 7 7 7 6 4 4 4 4 5 6 6 5 5 7 12 13 14 14 9 6 4 4 4 4 4 3 3 4 5 6 5 5 6 5 7 11 13 11 9 9 9 11 13 12 9
13 10 7 1 1 2 3 3 3 4 4 5 6 7 6 6 6 6 6 7 7 7 7 7 7 7 7 7 7 7 8 8 8 8 8 9 8 6 5 5 5 5 5 4 5 5 5 4 4 5 5 6 5 7 12 13 14 14 10 6 6 5 5 4 4 4 3 3 4 5 8 7 6 6 10 12 14 11 9 8 8 9 12 13 8
2 2 2 3 4 3 2 4 4 4 6 6 6 6 4 6 6 6 6 6 7 7 7 7 7 7 7 5 6 8 8 9 9 8 7 7 6 6 6 6 6 4 5 4 5 4 6 4 4 4 5 5 6 6 9 15 15 16 14 8 6 6 6 6 5 5 5 4 5 5 8 13 15 15 14 14 13 14 9 8 7 9 10 13 8
5 2 3 1 1 2 3 4 4 6 6 6 6 7 6 5 6 6 5 6 6 6 7 7 7 7 5 6 6 7 8 7 7 8 8 7 6 7 7 6 6 5 6 6 6 4 4 4 3 2 3 2 3 5 8 16 18 18 17 13 6 6 5 5 5 5 4 4 3 4 4 9 13 14 13 14 14 16 15 9 7 8 8 10 12
3 3 1 1 2 3 4 4 3 4 5 6 5 7 6 7 6 5 6 6 7 7 7 7 5 6 7 7 7 7 8 8 8 9 8 7 6 7 7 8 5 6 8 7 6 5 5 4 3 2 3 2 2 4 3 8 12 14 15 13 6 5 5 5 4 3 3 2 2 1 1 2 6 8 10 11 12 13 15 8 8 14 19 20 14
1 1 0 1 2 3 3 4 3 4 4 3 6 7 5 5 5 6 7 7 7 7 7 6 7 7 7 8 8 9 8 7 7 8 9 8 7 8 8 7 7 7 7 6 6 5 5 5 4 3 2 2 2 3 6 4 9 12 14 14 10 5 7 3 2 2 1 1 0 1 1 2 2 4 6 8 10 12 10 7 13 15 16 19 15
0 1 2 1 4 4 4 4 3 3 3 3 7 7 6 6 6 6 6 6 5 6 7 8 8 8 8 7 7 7 7 7 8 8 8 9 8 8 7 6 7 7 6 6 5 5 4 5 5 4 3 3 2 2 4 5 4 9 11 13 12 9 6 2 2 3 2 2 2 1 1 2 5 8 9 9 10 9 7 11 12 11 11 9 5
2 2 2 1 3 5 5 3 4 4 3 3 4 8 8 8 5 5 6 7 8 9 9 9 9 8 8 7 7 7 7 7 7 8 8 7 9 8 7 6 7 6 6 6 5 5 5 5 5 5 4 4 3 2 2 4 6 4 8 11 11 10 10 9 5 4 4 3 3 5 6 8 8 7 6 6 5 6 7 7 8 12 12 5 5
1 2 3 2 3 3 4 5 4 3 4 2 2 6 10 6 7 6 7 9 9 10 9 9 9 8 8 9 9 8 8 7 7 6 7 7 8 7 7 7 6 6 6 6 5 5 5 5 4 4 5 4 4 3 3 3 5 5 4 6 9 9 8 8 5 3 4 5 6 7 8 6 2 2 2 1 2 2 6 9 10 9 4 3 2
3 4 4 2 4 4 4 4 4 2 2 2 3 2 5 6 7 7 9 9 10 11 9 9 9 8 9 9 9 7 7 7 6 6 6 6 5 5 6 6 6 6 5 5 5 6 5 5 5 4 5 5 5 5 4 4 4 4 3 3 3 3 5 4 2 1 1 1 1 0 0 2 3 5 5 6 5 5 4 3 2 2 1 1 2
4 5 5 5 5 6 7 5 4 3 2 2 3 4 5 7 7 8 9 10 11 11 9 9 10 9 7 8 8 10 9 7 6 6 6 6 4 4 5 5 5 6 6 6 6 6 5 5 5 5 4 4 4 3 4 4 4 4 3 3 3 2 2 2 2 1 2 1 1 1 1 1 1 1 2 2 2 1 2 2 2 2 2 4 6
6 5 7 9 10 9 7 7 5 3 3 4 5 5 6 8 8 8 9 11 10 10 10 10 9 8 8 7 7 7 7 7 7 7 6 4 3 4 5 5 5 2 2 3 4 4 3 3 3 4 4 3 3 4 3 5 5 7 5 3 3 3 3 2 3 5 3 1 2 2 2 2 2 2 2 2 2 2 2 2 2 3 2 3 3
3 3 5 5 8 11 12 10 5 3 4 5 6 5 5 7 7 7 8 11 11 11 10 9 8 8 8 8 7 7 7 7 7 7 8 9 13 14 7 4 3 8 12 12 8 3 2 3 4 3 1 2 3 4 10 11 10 9 9 8 7 7 7 4 5 6 4 2 2 2 3 3 3 4 4 4 3 3 3 2 2 4 3 2 3
6 6 6 7 7 7 8 10 8 6 7 6 6 5 5 5 5 6 8 10 11 10 8 8 8 8 8 8 8 7 7 7 7 7 6 8 7 9 15 14 12 10 12 13 12 12 10 7 5 4 8 16 14 13 12 10 10 9 9 8 7 7 7 8 8 4 4 4 4 4 4 4 4 3 3 2 1 2 3 2 2 2 2 3 3
Wind_Direction
208 159 165 175 180 181 181 183 190 191 194 193 194 195 195 192 186 191 188 189 186 180 176 182 195 202 209 209 207 210 201 189 196 204 198 188 171 180 180 182 179 175 176 167 161 151 149 145 157 167 168 166 164 165 163 145 135 123 121 127 128 121 118 141 131 124 119 104 98 94 87 72 70 73 83 82 93 111 116 109 108 99 89 76 64
163 170 176 176 178 176 176 183 188 190 198 196 195 195 194 193 191 190 184 189 190 186 175 185 198 199 195 205 203 204 172 178 187 187 201 185 174 176 178 184 180 176 175 171 156 149 148 152 155 165 168 174 171 160 154 142 138 138 137 107 103 130 140 160 153 130 125 144 139 129 104 91 72 76 82 96 77 78 85 96 99 99 93 87 93
206 209 183 179 174 176 179 186 194 202 196 199 199 195 193 194 195 191 188 187 190 187 181 186 194 205 207 202 196 187 161 151 170 157 149 166 161 163 152 167 172 173 176 177 166 164 160 159 163 157 171 168 161 156 152 152 154 157 159 143 142 110 126 165 168 166 135 137 124 117 143 146 151 161 132 133 117 97 105 98 86 89 75 85 83
235 229 206 173 170 177 181 188 194 196 198 199 198 199 196 198 195 192 190 187 187 187 186 183 188 203 209 215 195 182 168 123 100 83 124 141 166 167 182 162 157 167 166 168 173 177 170 161 160 166 171 172 166 154 161 161 160 164 158 151 143 134 151 179 203 175 146 143 152 183 160 163 161 209 179 153 132 107 108 133 122 116 124 124 106
242 232 218 179 173 183 188 187 184 191 198 198 197 196 198 198 196 194 190 187 186 181 182 184 174 129 102 83 83 83 81 142 155 188 184 164 148 170 185 126 132 150 158 166 171 180 173 172 173 174 170 170 165 167 165 172 169 170 164 158 171 151 160 165 195 186 171 182 135 141 143 208 219 162 148 164 163 170 168 107 129 167 165 173 121
241 240 226 199 181 181 183 182 187 194 199 200 196 198 196 195 194 193 191 185 186 183 181 183 159 181 158 166 176 182 184 181 195 193 174 179 184 153 141 148 135 155 156 157 169 173 171 175 172 172 170 168 169 173 157 147 160 161 170 170 174 169 151 160 174 194 195 201 246 15 24 183 169 139 149 177 166 210 149 179 186 208 178 172 160
221 222 215 211 196 181 182 187 192 195 201 192 193 198 198 195 194 192 189 183 184 177 178 178 184 196 186 195 190 189 195 193 182 155 160 171 167 163 143 134 156 139 118 164 137 179 172 168 172 173 167 166 159 156 165 172 174 177 169 175 180 165 157 159 172 173 184 227 207 180 80 299 123 142 192 110 174 191 198 192 205 203 207 203 180
241 209 205 207 210 202 201 193 192 198 188 186 191 196 196 196 191 189 186 182 177 175 180 184 195 194 187 198 199 201 206 185 166 166 170 163 162 150 142 167 145 145 143 131 145 169 169 170 170 171 171 169 164 170 169 173 177 187 187 180 175 176 173 167 171 170 182 195 182 173 219 284 159 205 164 168 152 158 183 183 199 184 203 212 198
234 217 215 204 202 210 208 195 192 189 186 186 190 190 194 195 192 188 188 182 178 177 174 184 191 190 187 195 204 208 206 200 166 162 160 147 147 148 163 150 141 121 125 124 130 159 170 175 176 169 172 178 183 176 175 177 181 180 185 187 181 184 186 176 169 179 188 186 157 193 191 192 173 223 183 212 144 151 158 175 179 175 218 219 203
208 225 193 161 153 164 180 177 178 186 181 184 185 187 190 192 194 191 195 187 182 176 170 175 180 184 196 197 205 203 185 167 162 156 154 154 158 161 160 154 163 159 139 116 138 116 162 180 185 183 178 171 182 186 174 176 183 190 189 189 180 186 189 187 184 183 187 178 170 166 176 173 169 177 205 204 162 183 160 182 178 169 187 203 189
168 167 157 133 102 115 135 175 175 171 176 181 184 190 189 193 194 195 194 190 183 179 175 178 180 186 194 199 205 211 195 196 167 159 146 163 170 169 173 166 163 162 151 152 148 149 144 171 184 186 176 173 182 188 179 177 184 190 191 195 194 191 187 187 187 186 179 183 169 182 187 182 175 187 190 189 173 161 120 149 157 178 177 168 181
153 164 158 156 148 159 165 180 181 178 177 186 187 188 193 194 196 198 196 194 185 180 179 182 184 189 195 200 208 210 187 193 187 185 185 181 175 171 168 162 164 154 157 151 157 158 169 186 192 171 183 178 188 193 184 182 180 183 189 198 196 190 186 187 187 175 178 182 173 188 194 184 199 204 184 177 189 171 151 147 158 157 189 152 143
173 174 167 168 177 176 183 185 183 185 187 188 186 184 190 194 197 198 199 194 190 185 184 187 187 191 194 199 205 210 197 182 183 193 181 188 171 170 173 176 153 158 183 175 174 171 177 180 178 184 181 187 187 192 192 186 184 191 195 196 191 183 183 183 179 175 177 183 171 181 196 181 173 34 114 163 184 159 129 133 135 162 160 131 151
192 200 201 199 190 180 181 179 183 186 187 187 185 183 186 191 196 200 201 195 192 189 190 193 194 192 194 200 210 203 199 179 188 184 173 180 176 182 181 179 178 191 186 196 185 177 185 184 179 183 182 182 186 191 190 190 188 193 193 190 180 181 169 169 159 138 143 101 142 136 91 95 79 55 48 102 124 120 129 141 138 155 190 148 138
197 215 221 217 207 192 177 176 178 180 184 185 187 187 185 191 194 197 201 197 191 192 191 196 197 198 195 192 189 193 183 183 199 185 169 177 174 174 180 183 190 190 193 190 172 178 182 176 173 182 188 189 188 189 185 182 186 187 180 174 159 143 133 141 110 123 120 121 102 113 106 81 82 56 60 58 45 99 139 148 146 145 159 175 171
208 221 235 236 220 191 176 173 173 175 184 187 191 189 189 191 194 197 201 202 197 188 193 199 201 195 197 194 196 201 180 177 185 185 191 190 173 179 183 189 196 192 186 178 177 173 180 178 173 182 186 185 183 188 182 178 179 173 149 149 124 89 122 119 109 108 111 112 105 91 96 88 77 67 66 68 66 54 90 131 152 155 157 195 179
224 218 226 224 183 183 184 178 176 177 181 189 191 191 191 188 192 197 199 203 204 195 193 194 204 201 200 198 196 198 194 193 194 191 187 172 172 174 190 192 179 184 177 174 167 170 169 166 172 174 177 175 180 180 174 164 159 153 144 134 127 119 115 120 115 119 115 109 98 95 101 104 97 98 76 73 68 52 48 53 56 135 207 206 188
239 228 217 201 185 184 185 186 182 180 182 186 192 190 193 193 193 194 196 199 202 198 195 196 202 208 202 198 196 194 190 192 195 196 176 178 177 153 181 189 195 184 153 146 158 171 178 174 178 182 174 166 169 158 152 147 152 143 121 125 125 127 119 109 107 111 113 108 106 101 110 106 97 88 81 65 55 49 61 52 47 34 17 338 316
224 215 187 187 193 187 182 179 181 182 185 187 190 190 192 196 197 195 196 198 199 198 194 196 201 207 216 208 198 191 186 188 195 186 179 187 186 182 189 193 184 151 146 153 158 168 172 172 178 177 172 169 159 152 155 151 154 137 133 126 131 134 128 119 112 115 121 126 125 115 111 107 101 96 88 72 56 47 50 58 47 25 25 7 354
217 227 199 177 175 176 173 173 179 182 183 187 188 190 195 195 195 197 199 199 199 200 192 197 201 206 211 216 199 192 188 186 185 179 193 200 193 183 181 182 185 142 165 162 170 176 175 177 179 173 169 166 154 150 160 155 151 141 144 138 141 137 127 127 125 122 130 132 132 124 119 119 112 100 86 77 72 52 37 52 42 31 35 23 1
210 211 181 164 155 153 157 167 174 175 181 186 191 194 195 194 196 194 195 197 202 201 197 197 195 205 205 202 191 190 190 185 182 185 195 194 191 185 180 185 160 165 165 171 179 178 177 179 174 174 173 170 161 156 159 157 153 143 142 133 138 137 135 132 131 128 132 136 128 121 116 110 117 106 95 90 85 84 62 54 42 29 28 52 4
246 210 147 140 135 138 151 162 165 173 187 195 196 195 197 197 197 193 193 199 201 203 203 199 195 199 205 202 197 191 190 184 182 184 193 191 189 185 178 161 178 179 169 177 177 172 172 176 178 174 174 172 160 158 162 160 153 141 129 137 145 145 140 135 137 139 139 131 127 123 119 115 103 98 97 96 102 99 86 81 78 46 5 48 17
206 134 114 111 120 141 168 180 181 189 196 200 202 204 201 199 198 195 192 198 200 203 204 202 200 201 203 200 191 187 179 187 195 194 195 186 163 170 170 174 176 169 171 178 175 172 174 175 176 174 174 173 163 162 166 161 151 148 144 147 154 151 147 145 146 146 143 137 128 124 122 109 95 97 97 96 97 96 80 78 72 65 26 329 36
260 347 112 141 143 146 155 190 196 198 203 205 208 211 207 203 201 195 195 194 194 197 198 202 202 198 196 195 193 180 196 196 200 196 184 179 171 168 168 176 171 165 175 179 179 173 168 171 172 176 176 175 168 166 166 160 154 152 150 152 152 151 149 149 147 144 144 142 135 121 109 107 104 103 110 112 105 101 101 97 116 127 139 299 335
306 273 241 191 177 189 197 200 201 198 203 204 207 212 209 208 203 192 188 191 194 193 194 195 191 192 191 192 191 173 186 193 195 192 198 189 180 170 174 178 171 169 172 166 173 172 170 171 178 180 181 179 176 171 166 157 152 151 152 152 153 149 147 148 146 145 142 134 124 113 112 112 122 121 125 126 131 120 114 117 142 171 166 237 172
310 282 259 244 229 209 211 211 209 203 202 205 207 212 214 215 210 190 179 183 191 189 194 187 190 192 195 195 190 183 192 197 191 192 188 193 184 180 175 182 171 164 171 175 166 179 181 184 186 187 185 183 176 173 166 159 158 157 154 152 148 148 149 145 137 133 130 126 124 117 120 124 138 143 142 136 125 130 135 164 192 212 210 206 219
275 269 263 257 240 229 220 218 217 208 201 203 203 207 213 216 205 188 180 180 181 185 189 189 189 194 194 195 194 190 178 187 190 194 188 186 182 178 175 173 170 171 176 180 165 179 186 189 189 185 185 180 173 171 168 164 154 151 151 153 150 142 134 129 127 126 121 117 119 123 127 136 144 145 145 142 136 146 165 193 205 209 212 215 226
241 244 248 244 244 237 222 219 212 206 198 203 206 207 209 213 198 184 181 180 179 182 189 192 188 192 193 192 194 189 184 181 184 186 184 184 180 177 175 172 171 180 184 177 175 187 187 187 187 186 185 177 174 173 167 158 156 154 151 147 148 147 140 127 119 117 115 114 112 112 128 146 152 154 147 142 150 164 175 194 211 198 207 214 227
234 230 234 244 237 228 225 211 208 198 200 205 205 210 210 211 193 182 180 187 177 181 189 192 193 196 197 188 186 185 180 179 182 186 184 180 184 180 176 170 173 182 187 172 164 175 180 187 184 182 184 183 179 174 166 160 153 152 155 156 155 150 145 139 131 124 119 120 122 130 141 153 158 156 152 157 165 170 175 198 208 196 206 214 227
240 229 212 222 233 238 233 216 206 200 203 202 201 206 209 202 194 185 180 183 179 186 188 191 198 200 193 189 185 177 178 178 185 178 176 170 174 174 165 163 176 180 185 163 143 168 185 187 187 182 185 182 185 182 170 169 169 166 163 154 151 153 150 145 137 124 120 125 131 137 150 155 163 157 163 173 187 196 206 212 207 216 211 212 220
246 251 247 234 230 232 232 223 216 207 204 206 200 201 196 200 202 186 179 179 181 185 191 193 201 195 190 187 183 175 176 181 181 172 174 172 161 148 168 160 170 173 172 167 154 173 185 190 192 191 189 192 187 186 179 172 162 159 158 154 153 151 145 142 142 140 139 143 142 143 142 159 156 164 179 194 206 211 220 222 225 226 227 221 218
261 261 262 260 249 240 231 227 219 201 192 194 197 182 176 204 197 187 175 170 184 189 189 192 192 188 188 189 186 174 180 181 173 167 167 168 164 165 171 161 169 167 169 164 175 185 184 187 188 193 192 195 199 179 174 167 159 157 154 155 146 139 144 150 155 147 124 147 157 152 143 143 164 167 167 191 214 223 227 229 232 235 234 235 232
259 258 257 255 251 248 243 240 216 197 205 206 182 177 200 199 188 179 158 173 186 188 189 187 185 185 188 185 182 176 178 172 171 166 168 164 162 164 165 164 172 169 160 174 178 170 181 183 183 183 181 183 194 182 174 170 154 151 152 154 155 153 151 158 164 162 159 146 141 141 144 162 153 175 178 184 193 220 231 237 242 246 249 246 245
258 256 256 258 261 263 258 226 211 207 210 200 178 192 193 178 176 165 166 176 180 187 187 184 180 183 184 180 178 168 169 163 156 160 155 155 158 167 166 164 160 155 165 169 171 178 176 181 184 188 182 173 172 168 175 169 169 166 159 155 159 160 163 163 166 166 142 142 157 162 164 165 161 171 185 189 202 213 214 223 234 236 237 241 242
261 262 262 262 263 263 257 204 212 206 171 144 169 180 167 164 168 167 170 171 182 181 184 180 177 175 173 174 168 163 160 154 156 154 156 156 160 157 159 156 159 169 173 176 177 179 183 178 179 177 171 172 175 171 181 184 182 174 166 146 146 154 150 139 130 140 160 162 161 161 168 176 181 171 182 188 192 204 211 232 243 251 246 240 235
261 263 264 262 260 257 243 238 194 152 162 167 174 163 159 170 162 163 164 171 175 177 175 174 173 173 173 167 161 161 158 155 152 156 160 160 161 160 161 151 138 134 128 146 156 167 174 177 176 171 168 176 169 176 183 183 180 176 162 128 116 129 133 141 147 154 157 153 150 162 172 186 188 185 191 203 204 189 225 243 252 258 258 254 251
261 260 264 266 265 267 282 334 108 140 144 167 153 150 158 149 157 160 154 162 165 173 177 170 166 167 166 158 159 157 155 154 155 158 162 160 158 155 144 131 145 137 142 162 168 171 169 167 166 173 176 177 165 176 178 176 173 168 147 113 113 109 129 143 151 155 159 153 167 177 184 192 196 208 195 206 217 213 233 241 252 260 261 263 264
263 267 264 269 358 62 57 77 107 126 133 128 136 147 151 143 147 149 150 163 168 174 174 167 167 160 160 157 156 156 151 150 152 157 159 150 136 112 133 141 154 156 159 162 143 101 105 156 164 175 180 171 162 170 176 175 171 169 143 142 133 125 136 153 157 153 151 171 183 172 180 195 207 213 185 214 223 223 235 241 247 261 268 267 272
257 267 282 359 96 88 103 114 139 149 140 134 142 146 136 140 142 148 156 161 172 173 166 158 155 151 149 139 144 147 145 145 151 154 152 151 152 143 134 139 140 138 132 108 125 129 144 122 159 163 151 157 157 169 177 179 175 166 138 141 142 149 158 173 174 167 164 184 199 200 204 212 210 212 219 223 228 221 232 238 247 259 268 273 276
312 64 56 62 82 104 122 153 175 160 130 144 143 139 133 133 140 145 156 165 166 163 147 143 139 137 129 130 136 138 142 146 147 143 143 141 133 125 136 139 140 126 123 125 138 132 152 152 148 156 171 165 161 175 181 177 175 170 154 149 157 161 177 175 175 173 173 188 194 202 200 217 228 229 229 231 231 230 229 239 242 253 265 275 290
10 39 68 112 151 187 186 167 148 133 141 146 145 133 138 137 138 145 158 154 149 138 137 140 135 125 121 125 129 138 136 133 136 135 135 131 133 132 134 126 135 119 123 128 135 117 92 98 101 100 151 152 165 179 189 183 179 177 170 162 166 170 164 161 164 172 186 186 184 184 189 206 225 235 237 245 248 252 254 253 246 247 253 270 286
34 32 34 139 132 102 91 85 95 131 143 145 138 138 134 135 140 144 146 138 130 129 125 118 115 117 122 122 122 120 124 126 127 130 132 126 115 117 123 130 121 124 133 130 129 118 122 115 115 109 104 108 121 154 174 193 185 183 178 169 163 165 158 152 159 165 177 185 186 216 324 160 208 239 246 262 268 269 272 270 266 272 280 286 289
105 175 178 123 121 125 118 117 117 130 138 134 134 132 129 134 132 133 127 122 119 116 112 110 112 113 115 117 120 125 125 126 131 131 128 120 117 123 127 122 119 110 112 112 124 129 130 127 126 134 140 130 120 138 167 179 191 189 190 185 177 154 164 150 160 192 215 241 266 266 249 217 282 282 288 289 285 282 281 278 278 280 283 288 292
173 100 146 151 133 122 118 112 124 122 121 128 140 132 135 127 121 119 108 106 105 105 106 109 110 110 111 110 114 115 114 118 121 118 117 120 124 123 123 121 124 128 132 131 132 126 125 135 144 148 159 162 155 144 176 176 178 194 196 201 204 199 183 169 185 220 226 232 231 184 187 288 293 291 292 292 291 288 281 281 289 299 312 320 310
220 171 127 155 143 139 128 121 116 112 112 113 140 139 137 130 120 114 119 116 114 113 113 111 113 114 110 111 112 111 114 116 119 123 120 116 122 128 126 127 129 131 135 143 150 155 160 161 161 163 163 159 158 153 150 184 187 191 208 212 215 217 223 227 234 235 218 236 256 266 284 296 307 310 307 305 298 286 284 289 304 302 302 294 289
156 122 153 131 110 106 123 128 121 115 116 115 135 147 140 134 131 130 124 123 122 120 109 117 119 116 118 118 113 110 112 117 117 118 119 128 135 136 132 138 143 145 149 150 153 156 160 156 160 164 157 157 153 151 161 159 179 187 206 226 225 230 238 244 263 286 317 324 307 294 290 295 312 317 307 275 279 290 292 292 286 284 272 264 266
183 179 133 127 133 136 133 126 117 101 90 99 132 128 126 125 127 127 127 126 124 121 113 116 122 116 120 122 121 123 121 118 117 117 116 122 130 130 131 141 148 147 149 148 150 156 156 158 165 163 153 147 154 167 167 161 163 170 180 186 200 216 220 222 234 239 246 244 250 94 85 284 271 270 272 274 268 270 267 260 253 253 267 287 287
184 149 160 142 139 140 138 135 128 103 81 74 94 112 123 124 123 130 130 127 127 130 125 123 127 129 126 128 121 119 121 122 120 117 118 120 123 125 130 137 152 152 155 154 153 156 158 163 160 151 144 140 153 165 165 159 161 158 153 148 148 145 142 154 166 144 131 143 129 138 220 230 205 216 223 207 221 226 246 249 252 248 253 265 272
162 180 183 176 163 155 139 122 112 80 84 77 87 90 120 128 131 135 138 132 130 127 125 126 126 126 125 121 122 129 124 121 114 92 71 67 113 132 117 79 44 65 117 150 146 137 148 151 144 144 147 153 156 164 169 143 145 151 150 144 146 147 146 141 146 155 128 129 145 185 191 193 223 244 261 267 266 265 264 266 254 245 262 269 271
153 156 201 184 174 157 147 138 114 104 93 100 121 120 125 133 137 143 142 136 134 131 129 130 131 127 128 126 125 122 120 115 107 105 102 80 58 57 61 99 90 67 65 60 66 91 104 118 105 77 98 170 166 121 125 134 141 147 148 141 141 142 146 144 160 174 169 182 213 216 236 245 250 259 267 273 277 293 295 298 297 305 301 286 290
159 157 190 191 172 160 145 141 138 134 126 118 119 127 131 137 141 147 143 141 139 136 134 134 136 140 139 136 131 124 123 117 116 116 107 106 98 69 72 82 90 88 85 83 84 82 80 86 104 108 79 88 101 117 127 131 137 140 147 150 155 166 175 186 192 188 212 208 208 224 224 229 228 226 235 235 279 305 301 306 310 321 307 306 315